TimeCDT,TemperatureF,Dew PointF,Humidity,Sea Level PressureIn,VisibilityMPH,Wind Direction,Wind SpeedMPH,Gust SpeedMPH,PrecipitationIn,Events,Conditions,WindDirDegrees,DateUTC
12:15 AM,67.8,63.1,85,30.09,7.0,Calm,Calm,-,N/A,,Clear,0,2013-08-20 05:15:00
12:35 AM,67.1,62.6,85,30.09,7.0,SSE,4.6,-,N/A,,Clear,160,2013-08-20 05:35:00
12:55 AM,67.1,62.6,85,30.09,7.0,SSE,4.6,-,N/A,,Clear,160,2013-08-20 05:55:00
1:15 AM,67.1,62.2,84,30.08,7.0,South,4.6,-,N/A,,Clear,170,2013-08-20 06:15:00
1:35 AM,67.6,62.1,82,30.08,10.0,South,4.6,-,N/A,,Clear,170,2013-08-20 06:35:00
1:55 AM,68.0,62.1,81,30.08,7.0,SSE,4.6,-,N/A,,Clear,160,2013-08-20 06:55:00
2:15 AM,67.5,61.9,82,30.08,7.0,South,3.5,-,N/A,,Clear,170,2013-08-20 07:15:00
2:35 AM,67.3,61.9,83,30.08,10.0,South,3.5,-,N/A,,Clear,170,2013-08-20 07:35:00
2:55 AM,67.1,61.9,83,30.08,10.0,SSE,3.5,-,N/A,,Clear,160,2013-08-20 07:55:00
3:15 AM,66.4,61.7,85,30.08,7.0,Calm,Calm,-,N/A,,Clear,0,2013-08-20 08:15:00
3:35 AM,66.7,61.5,83,30.08,10.0,SSE,3.5,-,N/A,,Clear,150,2013-08-20 08:35:00
3:55 AM,65.5,61.3,86,30.08,7.0,SSE,3.5,-,N/A,,Clear,160,2013-08-20 08:55:00
4:15 AM,65.1,61.2,87,30.08,7.0,Calm,Calm,-,N/A,,Clear,0,2013-08-20 09:15:00
4:35 AM,64.8,61.0,88,30.07,7.0,Calm,Calm,-,N/A,,Clear,0,2013-08-20 09:35:00
4:55 AM,65.3,61.5,88,30.08,7.0,Calm,Calm,-,N/A,,Clear,0,2013-08-20 09:55:00
5:15 AM,64.9,61.3,88,30.08,5.0,Calm,Calm,-,N/A,,Clear,0,2013-08-20 10:15:00
5:35 AM,63.7,60.8,90,30.08,5.0,SSE,3.5,-,N/A,,Clear,160,2013-08-20 10:35:00
5:55 AM,63.9,61.0,90,30.09,5.0,Calm,Calm,-,N/A,,Clear,0,2013-08-20 10:55:00
6:15 AM,63.5,60.6,90,30.10,5.0,Calm,Calm,-,N/A,,Clear,0,2013-08-20 11:15:00
6:35 AM,63.1,60.8,92,30.11,3.0,Calm,Calm,-,N/A,,Clear,0,2013-08-20 11:35:00
6:55 AM,63.9,61.3,91,30.11,2.5,Calm,Calm,-,N/A,,Clear,0,2013-08-20 11:55:00
7:15 AM,66.2,62.6,88,30.11,5.0,Calm,Calm,-,N/A,,Clear,0,2013-08-20 12:15:00
7:35 AM,67.3,63.7,88,30.12,4.0,Calm,Calm,-,N/A,,Clear,0,2013-08-20 12:35:00
7:55 AM,67.8,64.4,89,30.12,4.0,Calm,Calm,-,N/A,,Clear,0,2013-08-20 12:55:00
8:15 AM,69.6,65.7,87,30.12,5.0,Calm,Calm,-,N/A,,Clear,0,2013-08-20 13:15:00
8:35 AM,71.8,66.0,82,30.13,5.0,Calm,Calm,-,N/A,,Haze,0,2013-08-20 13:35:00
8:55 AM,73.4,66.6,79,30.13,7.0,South,3.5,-,N/A,,Clear,180,2013-08-20 13:55:00
9:15 AM,74.7,67.1,77,30.13,10.0,South,3.5,-,N/A,,Clear,170,2013-08-20 14:15:00
9:35 AM,76.5,67.5,74,30.13,10.0,SSW,4.6,-,N/A,,Clear,200,2013-08-20 14:35:00
9:55 AM,77.4,68.0,73,30.13,10.0,South,3.5,-,N/A,,Clear,170,2013-08-20 14:55:00
10:15 AM,79.0,67.6,68,30.13,10.0,Calm,Calm,-,N/A,,Clear,0,2013-08-20 15:15:00
10:35 AM,80.6,68.5,67,30.13,10.0,Calm,Calm,-,N/A,,Clear,0,2013-08-20 15:35:00
10:55 AM,81.5,68.4,64,30.13,10.0,SSE,3.5,-,N/A,,Clear,160,2013-08-20 15:55:00
11:15 AM,82.9,67.6,60,30.13,10.0,South,5.8,-,N/A,,Clear,190,2013-08-20 16:15:00
11:35 AM,81.7,66.7,60,30.12,10.0,SSE,5.8,-,N/A,,Clear,160,2013-08-20 16:35:00
11:55 AM,83.8,67.5,58,30.12,10.0,South,5.8,-,N/A,,Scattered Clouds,180,2013-08-20 16:55:00
12:15 PM,84.2,66.0,54,30.12,10.0,SSW,4.6,-,N/A,,Scattered Clouds,200,2013-08-20 17:15:00
12:35 PM,84.4,66.0,54,30.11,10.0,South,6.9,-,N/A,,Mostly Cloudy,190,2013-08-20 17:35:00
12:55 PM,84.6,67.5,56,30.11,10.0,SSE,4.6,-,N/A,,Scattered Clouds,160,2013-08-20 17:55:00
1:15 PM,85.6,64.6,49,30.11,10.0,SSE,4.6,-,N/A,,Clear,150,2013-08-20 18:15:00
1:35 PM,85.8,66.6,52,30.10,10.0,SSE,5.8,-,N/A,,Clear,160,2013-08-20 18:35:00
1:55 PM,85.6,66.2,52,30.10,10.0,ESE,5.8,-,N/A,,Clear,120,2013-08-20 18:55:00
2:15 PM,86.4,65.3,49,30.09,10.0,SE,4.6,-,N/A,,Scattered Clouds,140,2013-08-20 19:15:00
2:35 PM,86.2,64.9,49,30.09,10.0,SSE,4.6,-,N/A,,Scattered Clouds,150,2013-08-20 19:35:00
2:55 PM,86.9,64.6,47,30.08,10.0,South,5.8,-,N/A,,Scattered Clouds,170,2013-08-20 19:55:00
3:15 PM,86.4,65.5,50,30.08,10.0,ESE,4.6,-,N/A,,Scattered Clouds,120,2013-08-20 20:15:00
3:35 PM,84.0,66.6,56,30.07,10.0,SE,5.8,-,N/A,,Scattered Clouds,130,2013-08-20 20:35:00
3:55 PM,84.7,65.8,53,30.07,10.0,ESE,4.6,-,N/A,,Scattered Clouds,110,2013-08-20 20:55:00
4:15 PM,85.1,65.8,52,30.07,10.0,SSE,5.8,-,N/A,,Clear,160,2013-08-20 21:15:00
4:35 PM,85.3,66.4,53,30.06,10.0,South,8.1,-,N/A,,Clear,170,2013-08-20 21:35:00
4:55 PM,84.9,66.4,54,30.06,10.0,SE,6.9,-,N/A,,Clear,140,2013-08-20 21:55:00
5:15 PM,84.2,66.2,55,30.06,10.0,SE,4.6,-,N/A,,Clear,140,2013-08-20 22:15:00
5:35 PM,84.0,65.8,54,30.06,10.0,SE,5.8,-,N/A,,Clear,140,2013-08-20 22:35:00
5:55 PM,83.7,66.4,56,30.05,10.0,SE,5.8,-,N/A,,Clear,140,2013-08-20 22:55:00
6:15 PM,83.1,66.7,58,30.05,10.0,SE,5.8,-,N/A,,Clear,140,2013-08-20 23:15:00
6:35 PM,82.2,67.3,60,30.05,10.0,SE,3.5,-,N/A,,Clear,140,2013-08-20 23:35:00
6:55 PM,80.8,68.0,65,30.05,10.0,SE,3.5,-,N/A,,Clear,130,2013-08-20 23:55:00
7:15 PM,79.0,68.0,69,30.06,10.0,SE,4.6,-,N/A,,Clear,140,2013-08-21 00:15:00
7:35 PM,77.2,68.0,73,30.06,10.0,SE,4.6,-,N/A,,Clear,130,2013-08-21 00:35:00
7:55 PM,76.1,66.9,73,30.06,10.0,SE,4.6,-,N/A,,Clear,140,2013-08-21 00:55:00
8:15 PM,74.8,66.4,75,30.06,10.0,SSE,3.5,-,N/A,,Clear,150,2013-08-21 01:15:00
8:35 PM,74.3,66.2,76,30.07,10.0,SE,3.5,-,N/A,,Clear,140,2013-08-21 01:35:00
8:55 PM,73.4,65.8,77,30.07,10.0,SE,4.6,-,N/A,,Clear,140,2013-08-21 01:55:00
9:15 PM,72.0,65.8,81,30.08,10.0,Calm,Calm,-,N/A,,Clear,0,2013-08-21 02:15:00
9:35 PM,72.0,66.0,81,30.08,10.0,Calm,Calm,-,N/A,,Clear,0,2013-08-21 02:35:00
9:55 PM,72.0,66.0,81,30.08,10.0,Calm,Calm,-,N/A,,Clear,0,2013-08-21 02:55:00
10:15 PM,70.7,65.7,84,30.09,10.0,SSE,3.5,-,N/A,,Clear,160,2013-08-21 03:15:00
10:35 PM,70.3,65.7,85,30.09,7.0,South,3.5,-,N/A,,Clear,170,2013-08-21 03:35:00
10:55 PM,70.2,65.3,85,30.09,7.0,South,3.5,-,N/A,,Clear,170,2013-08-21 03:55:00
11:15 PM,70.3,65.3,84,30.09,7.0,SSE,3.5,-,N/A,,Clear,160,2013-08-21 04:15:00
11:35 PM,69.8,64.9,84,30.08,10.0,SSE,3.5,-,N/A,,Clear,160,2013-08-21 04:35:00
11:55 PM,69.8,64.8,84,30.08,7.0,SSE,3.5,-,N/A,,Clear,160,2013-08-21 04:55:00